FW7529 Weather Reports


Display with metric or nautical units.
time (UTC)temp
F
wind
direction
speed
MPH
gust
MPH
rain 1hr
in
rain 24hr
in
rain mn
in
humidity
%
barometer
mb
20230128161908 50 141 0.0 0.0 0.00 0.00 0.00 41 1059.1
20230128161407 49 143 0.0 0.0 0.00 0.00 0.00 43 1059.1
20230128160907 49 125 0.0 0.0 0.00 0.00 0.00 43 1059.3
20230128160406 50 132 1.0 1.0 0.00 0.00 0.00 42 1059.1
20230128155906 49 146 0.0 0.0 0.00 0.00 0.00 43 1059.2
20230128155405 49 194 2.0 2.0 0.00 0.00 0.00 43 1059.3
20230128154906 49 140 0.0 0.0 0.00 0.00 0.00 44 1059.2
20230128154404 49 135 1.0 1.0 0.00 0.00 0.00 44 1059.1
20230128153902 49 136 0.0 1.0 0.00 0.00 0.00 44 1059.3
20230128153402 50 149 0.0 1.0 0.00 0.00 0.00 46 1059.1
20230128152901 49 141 0.0 0.0 0.00 0.00 0.00 49 1059.3
20230128152400 47 139 0.0 0.0 0.00 0.00 0.00 53 1059.3
20230128151858 47 129 1.0 1.0 0.00 0.00 0.00 53 1059.2
20230128151356 46 131 0.0 0.0 0.00 0.00 0.00 54 1059.1
20230128150855 46 143 0.0 0.0 0.00 0.00 0.00 54 1059.2
20230128150354 44 126 1.0 1.0 0.00 0.00 0.00 58 1059.1
20230128145853 43 132 0.0 0.0 0.00 0.00 0.00 58 1059.2
20230128145353 42 128 0.0 0.0 0.00 0.00 0.00 60 1059.3
20230128144851 41 128 0.0 0.0 0.00 0.00 0.00 62 1059.2
20230128144349 41 128 0.0 0.0 0.00 0.00 0.00 62 1059.2
20230128143849 40 132 0.0 0.0 0.00 0.00 0.00 66 1059.3
20230128143347 38 125 0.0 0.0 0.00 0.00 0.00 66 1059.2
20230128142846 37 131 0.0 0.0 0.00 0.00 0.00 69 1059.2
20230128142346 36 133 0.0 0.0 0.00 0.00 0.00 70 1058.9
20230128141845 36 133 0.0 0.0 0.00 0.00 0.00 70 1059.1
20230128141345 37 133 0.0 0.0 0.00 0.00 0.00 72 1058.9
20230128140843 35 133 0.0 0.0 0.00 0.00 0.00 73 1059.0
20230128140341 35 133 0.0 0.0 0.00 0.00 0.00 75 1058.9
20230128135841 35 133 0.0 0.0 0.00 0.00 0.00 74 1058.8
20230128135341 33 133 0.0 0.0 0.00 0.00 0.00 78 1058.8
20230128134840 32 132 0.0 0.0 0.00 0.00 0.00 79 1058.7
20230128134338 31 141 0.0 0.0 0.00 0.00 0.00 81 1058.7
20230128133838 31 142 0.0 0.0 0.00 0.00 0.00 81 1058.6
20230128133337 30 142 0.0 0.0 0.00 0.00 0.00 81 1058.7
20230128132836 30 142 0.0 0.0 0.00 0.00 0.00 80 1058.7
20230128132335 30 142 0.0 0.0 0.00 0.00 0.00 81 1058.5
20230128131834 29 142 0.0 0.0 0.00 0.00 0.00 83 1058.6
20230128131333 28 142 0.0 0.0 0.00 0.00 0.00 83 1058.6
20230128130833 28 143 0.0 0.0 0.00 0.00 0.00 85 1058.5
20230128130331 27 143 0.0 0.0 0.00 0.00 0.00 86 1058.5
20230128125831 26 144 0.0 0.0 0.00 0.00 0.00 87 1058.6
20230128125330 26 143 0.0 0.0 0.00 0.00 0.00 87 1058.4
20230128124830 26 144 0.0 0.0 0.00 0.00 0.00 88 1058.0
20230128124329 25 144 0.0 0.0 0.00 0.00 0.00 89 1058.2
20230128123828 25 135 0.0 0.0 0.00 0.00 0.00 89 1058.1
20230128123328 25 135 0.0 0.0 0.00 0.00 0.00 89 1058.2
20230128122828 26 135 0.0 0.0 0.00 0.00 0.00 88 1058.1
20230128122326 26 135 0.0 0.0 0.00 0.00 0.00 88 1058.1
20230128121826 25 135 0.0 0.0 0.00 0.00 0.00 89 1058.1
20230128121325 26 137 0.0 0.0 0.00 0.00 0.00 88 1057.8
20230128120824 26 135 0.0 0.0 0.00 0.00 0.00 88 1057.7
20230128120322 26 143 0.0 0.0 0.00 0.00 0.00 88 1057.7
20230128115820 26 145 0.0 0.0 0.00 0.00 0.00 88 1057.9
20230128115318 26 147 0.0 0.0 0.00 0.00 0.00 89 1057.9
20230128114816 26 147 0.0 0.0 0.00 0.00 0.00 88 1057.8
20230128114317 26 147 0.0 0.0 0.00 0.00 0.00 88 1057.9
20230128113815 26 148 0.0 0.0 0.00 0.00 0.00 88 1057.9
20230128113314 26 148 0.0 0.0 0.00 0.00 0.00 88 1057.8
20230128112814 26 148 0.0 0.0 0.00 0.00 0.00 88 1057.8
20230128112313 26 147 0.0 0.0 0.00 0.00 0.00 88 1057.9
20230128111809 26 147 0.0 0.0 0.00 0.00 0.00 87 1057.6
20230128111309 26 147 0.0 0.0 0.00 0.00 0.00 87 1057.4
20230128110808 27 147 0.0 0.0 0.00 0.00 0.00 87 1057.5
20230128110307 27 147 0.0 0.0 0.00 0.00 0.00 87 1057.4
20230128105807 26 147 0.0 0.0 0.00 0.00 0.00 88 1057.4
20230128105307 27 148 0.0 0.0 0.00 0.00 0.00 87 1057.3
20230128104807 27 147 0.0 0.0 0.00 0.00 0.00 88 1057.3
20230128104306 27 147 0.0 0.0 0.00 0.00 0.00 88 1057.3
20230128103806 26 147 0.0 0.0 0.00 0.00 0.00 88 1057.4
20230128103304 27 147 0.0 0.0 0.00 0.00 0.00 87 1057.0
20230128102803 27 147 0.0 0.0 0.00 0.00 0.00 87 1057.0
20230128102306 27 148 0.0 0.0 0.00 0.00 0.00 87 1057.1
20230128101802 26 147 0.0 0.0 0.00 0.00 0.00 88 1057.1
20230128101300 27 147 0.0 0.0 0.00 0.00 0.00 88 1056.7
20230128100758 27 147 0.0 0.0 0.00 0.00 0.00 88 1056.9
20230128100257 27 147 0.0 0.0 0.00 0.00 0.00 88 1057.1
20230128095756 26 148 0.0 0.0 0.00 0.00 0.00 88 1056.8
20230128095256 26 148 0.0 0.0 0.00 0.00 0.00 87 1057.0
20230128094755 27 148 0.0 0.0 0.00 0.00 0.00 87 1056.9
20230128094253 27 148 0.0 0.0 0.00 0.00 0.00 87 1056.8
20230128093749 27 148 0.0 0.0 0.00 0.00 0.00 86 1056.6
20230128093250 27 149 0.0 0.0 0.00 0.00 0.00 86 1056.8
20230128092749 27 146 0.0 0.0 0.00 0.00 0.00 86 1056.9
20230128092247 27 128 0.0 0.0 0.00 0.00 0.00 86 1056.7
20230128091746 27 128 0.0 0.0 0.00 0.00 0.00 86 1056.7
20230128091246 28 128 0.0 0.0 0.00 0.00 0.00 85 1056.8
20230128090745 27 128 0.0 0.0 0.00 0.00 0.00 86 1056.6
20230128090245 27 128 0.0 0.0 0.00 0.00 0.00 86 1056.4
20230128085744 27 127 0.0 0.0 0.00 0.00 0.00 86 1056.5
20230128085243 27 127 0.0 0.0 0.00 0.00 0.00 86 1056.6
20230128084743 28 127 0.0 0.0 0.00 0.00 0.00 85 1056.5
20230128084243 28 127 0.0 0.0 0.00 0.00 0.00 85 1056.6
20230128083741 28 127 0.0 0.0 0.00 0.00 0.00 84 1056.6
20230128083241 28 127 0.0 0.0 0.00 0.00 0.00 84 1056.7
20230128082739 28 127 0.0 0.0 0.00 0.00 0.00 84 1056.4
20230128082239 28 127 0.0 0.0 0.00 0.00 0.00 84 1056.4
20230128081738 28 127 0.0 0.0 0.00 0.00 0.00 85 1056.3
20230128081238 28 126 0.0 0.0 0.00 0.00 0.00 84 1056.1
20230128080737 28 127 0.0 0.0 0.00 0.00 0.00 84 1056.4
20230128080236 28 130 0.0 0.0 0.00 0.00 0.00 84 1056.5
20230128075734 28 145 0.0 0.0 0.00 0.00 0.00 84 1056.3
20230128075232 28 145 0.0 0.0 0.00 0.00 0.00 84 1056.1
20230128074731 28 145 0.0 0.0 0.00 0.00 0.00 84 1055.9
20230128074230 29 145 0.0 0.0 0.00 0.00 0.00 84 1055.9
20230128073729 29 149 0.0 0.0 0.00 0.00 0.00 82 1056.0
20230128073229 29 149 0.0 0.0 0.00 0.00 0.00 82 1056.0
20230128072729 29 150 0.0 0.0 0.00 0.00 0.00 81 1056.0
20230128072229 28 147 0.0 0.0 0.00 0.00 0.00 84 1056.1
20230128071729 29 146 0.0 0.0 0.00 0.00 0.00 84 1056.0
20230128071227 29 146 0.0 0.0 0.00 0.00 0.00 85 1055.8
20230128070727 29 146 0.0 0.0 0.00 0.00 0.00 84 1055.9
20230128070226 29 146 0.0 0.0 0.00 0.00 0.00 83 1056.0
20230128065726 29 147 0.0 0.0 0.00 0.00 0.00 83 1055.9
20230128065226 28 148 0.0 0.0 0.00 0.00 0.00 84 1055.8
20230128064724 28 146 0.0 0.0 0.00 0.00 0.00 86 1055.8
20230128064223 28 146 0.0 0.0 0.00 0.00 0.00 85 1055.7
20230128063722 28 146 0.0 0.0 0.00 0.00 0.00 84 1055.8
20230128063220 28 146 0.0 0.0 0.00 0.00 0.00 84 1055.6
20230128062720 28 146 0.0 0.0 0.00 0.00 0.00 84 1055.8
20230128062218 29 146 0.0 0.0 0.00 0.00 0.00 84 1055.3
20230128061717 29 146 0.0 0.0 0.00 0.00 0.00 83 1055.6
20230128061216 30 146 0.0 0.0 0.00 0.00 0.00 82 1055.7
20230128060714 30 146 0.0 0.0 0.00 0.00 0.00 83 1055.8
20230128060214 30 146 0.0 0.0 0.00 0.00 0.00 83 1055.7
20230128055714 30 146 0.0 0.0 0.00 0.00 0.00 82 1055.7
20230128055210 30 146 0.0 0.0 0.00 0.00 0.00 80 1055.9
20230128054711 31 146 0.0 0.0 0.00 0.00 0.00 78 1055.8
20230128054209 31 146 0.0 0.0 0.00 0.00 0.00 77 1055.9
20230128053709 32 146 0.0 0.0 0.00 0.00 0.00 75 1056.2
20230128053208 31 147 0.0 0.0 0.00 0.00 0.00 76 1056.3
20230128052708 30 145 0.0 0.0 0.00 0.00 0.00 82 1056.0
20230128052206 30 145 0.0 0.0 0.00 0.00 0.00 83 1056.1
20230128051706 31 145 0.0 0.0 0.00 0.00 0.00 81 1056.3
20230128051204 31 145 0.0 0.0 0.00 0.00 0.00 80 1056.4
20230128050704 31 145 0.0 0.0 0.00 0.00 0.00 77 1056.2
20230128050203 32 146 0.0 0.0 0.00 0.00 0.00 75 1056.2
20230128045659 32 146 0.0 0.0 0.00 0.00 0.00 76 1056.1
20230128045159 32 145 0.0 0.0 0.00 0.00 0.00 77 1056.2
20230128044658 33 146 0.0 0.0 0.00 0.00 0.00 74 1056.2
20230128044156 34 146 0.0 0.0 0.00 0.00 0.00 71 1056.3
20230128043656 35 146 0.0 0.0 0.00 0.00 0.00 68 1056.3
20230128043156 36 146 0.0 0.0 0.00 0.00 0.00 64 1056.3
20230128042656 36 146 0.0 0.0 0.00 0.00 0.00 64 1056.4
20230128042155 36 151 0.0 0.0 0.00 0.00 0.00 63 1056.3
20230128041655 37 157 0.0 1.0 0.00 0.00 0.00 62 1056.3
20230128041155 36 165 0.0 1.0 0.00 0.00 0.00 63 1056.3
20230128040653 36 153 0.0 0.0 0.00 0.00 0.00 64 1056.4
20230128040153 36 153 0.0 0.0 0.00 0.00 0.00 64 1056.6
20230128035651 36 152 0.0 0.0 0.00 0.00 0.00 65 1056.1
20230128035152 35 153 0.0 0.0 0.00 0.00 0.00 66 1056.4
20230128034651 34 148 0.0 0.0 0.00 0.00 0.00 69 1056.3
20230128034149 33 143 0.0 0.0 0.00 0.00 0.00 71 1056.2
20230128033649 34 143 0.0 0.0 0.00 0.00 0.00 72 1056.0
20230128033148 35 143 0.0 0.0 0.00 0.00 0.00 68 1056.2
20230128032648 35 143 0.0 0.0 0.00 0.00 0.00 68 1056.0
20230128032147 35 143 0.0 0.0 0.00 0.00 0.00 67 1056.1
20230128031647 37 143 0.0 0.0 0.00 0.00 0.00 63 1055.9
20230128031145 37 143 0.0 0.0 0.00 0.00 0.00 61 1056.1
20230128030644 36 143 0.0 0.0 0.00 0.00 0.00 62 1055.9
20230128030143 37 142 0.0 0.0 0.00 0.00 0.00 67 1056.0
20230128025642 37 151 0.0 0.0 0.00 0.00 0.00 62 1055.7
20230128025141 35 149 0.0 0.0 0.00 0.00 0.00 67 1055.7
20230128024641 35 161 0.0 0.0 0.00 0.00 0.00 70 1055.8
20230128024139 35 146 0.0 0.0 0.00 0.00 0.00 68 1055.7
20230128023638 36 146 0.0 0.0 0.00 0.00 0.00 66 1055.8
20230128023136 37 146 0.0 0.0 0.00 0.00 0.00 64 1055.7
20230128022636 37 146 0.0 0.0 0.00 0.00 0.00 62 1055.6
20230128022135 37 146 0.0 0.0 0.00 0.00 0.00 61 1055.5
20230128021635 37 146 0.0 0.0 0.00 0.00 0.00 62 1055.7
20230128021133 38 157 0.0 1.0 0.00 0.00 0.00 60 1055.6
20230128020633 39 145 0.0 0.0 0.00 0.00 0.00 58 1055.5
20230128020133 39 157 0.0 1.0 0.00 0.00 0.00 57 1055.5
20230128015632 39 163 0.0 1.0 0.00 0.00 0.00 57 1055.6
20230128015131 39 149 0.0 0.0 0.00 0.00 0.00 58 1055.6
20230128014628 39 167 0.0 1.0 0.00 0.00 0.00 57 1055.5
20230128014128 38 171 1.0 1.0 0.00 0.00 0.00 58 1055.4
20230128013627 37 167 0.0 0.0 0.00 0.00 0.00 59 1055.4
20230128013125 36 142 0.0 0.0 0.00 0.00 0.00 61 1055.4
20230128012625 37 142 0.0 0.0 0.00 0.00 0.00 59 1055.1
20230128012124 37 143 0.0 0.0 0.00 0.00 0.00 59 1054.9
20230128011623 37 143 0.0 0.0 0.00 0.00 0.00 57 1054.9
20230128011122 37 158 0.0 1.0 0.00 0.00 0.00 60 1054.8
20230128010622 38 142 0.0 0.0 0.00 0.00 0.00 58 1054.8
20230128010121 38 142 0.0 0.0 0.00 0.00 0.00 60 1054.6
20230128005617 38 142 0.0 0.0 0.00 0.00 0.00 56 1054.7
20230128005115 38 142 0.0 0.0 0.00 0.00 0.00 58 1054.6
20230128004615 39 142 0.0 0.0 0.00 0.00 0.00 55 1054.7
20230128004113 40 141 0.0 0.0 0.00 0.00 0.00 53 1054.4
20230128003612 40 142 0.0 0.0 0.00 0.00 0.00 54 1054.1
20230128003112 40 142 0.0 0.0 0.00 0.00 0.00 55 1054.4
20230128002611 40 142 0.0 0.0 0.00 0.00 0.00 51 1054.0
20230128002111 41 142 0.0 0.0 0.00 0.00 0.00 52 1054.3
20230128001611 42 142 0.0 0.0 0.00 0.00 0.00 50 1054.2
20230128001111 42 142 0.0 0.0 0.00 0.00 0.00 48 1054.1
20230128000611 42 142 0.0 0.0 0.00 0.00 0.00 48 1054.1
20230128000110 43 154 0.0 0.0 0.00 0.00 0.00 44 1054.1
20230127235609 43 158 0.0 1.0 0.00 0.00 0.00 46 1054.4
20230127235108 43 148 0.0 0.0 0.00 0.00 0.00 47 1054.1
20230127234606 44 145 0.0 0.0 0.00 0.00 0.00 43 1054.2
20230127234106 44 144 0.0 0.0 0.00 0.00 0.00 43 1054.0
20230127233605 44 144 0.0 0.0 0.00 0.00 0.00 43 1053.9
20230127233105 44 144 0.0 0.0 0.00 0.00 0.00 43 1053.7
20230127232604 45 144 0.0 0.0 0.00 0.00 0.00 42 1053.7
20230127232104 45 144 0.0 0.0 0.00 0.00 0.00 41 1053.8
20230127231603 46 146 0.0 0.0 0.00 0.00 0.00 41 1053.5
20230127231103 46 145 0.0 0.0 0.00 0.00 0.00 40 1053.5
20230127230601 46 213 0.0 1.0 0.00 0.00 0.00 39 1053.5
20230127230101 46 222 1.0 2.0 0.00 0.00 0.00 40 1053.6
20230127225601 46 169 1.0 1.0 0.00 0.00 0.00 39 1053.6
20230127225101 47 150 0.0 0.0 0.00 0.00 0.00 40 1053.6
20230127224559 47 150 0.0 0.0 0.00 0.00 0.00 38 1053.7
20230127224058 48 154 0.0 0.0 0.00 0.00 0.00 37 1053.5
20230127223556 48 160 1.0 1.0 0.00 0.00 0.00 36 1053.6
20230127223055 48 173 1.0 2.0 0.00 0.00 0.00 36 1053.2
20230127222554 49 151 0.0 1.0 0.00 0.00 0.00 36 1053.5
20230127222054 50 205 1.0 1.0 0.00 0.00 0.00 34 1053.5
20230127221552 50 193 3.0 3.0 0.00 0.00 0.00 32 1053.3
20230127221051 50 157 1.0 1.0 0.00 0.00 0.00 32 1053.3
20230127220550 50 173 3.0 5.0 0.00 0.00 0.00 32 1053.5
20230127220050 50 135 1.0 2.0 0.00 0.00 0.00 33 1053.3
20230127215549 51 221 3.0 3.0 0.00 0.00 0.00 32 1053.4
20230127215049 51 245 5.0 6.0 0.00 0.00 0.00 31 1053.5
20230127214547 51 230 6.0 8.0 0.00 0.00 0.00 30 1053.5
20230127214045 51 123 3.0 5.0 0.00 0.00 0.00 30 1053.5
20230127213544 51 114 1.0 1.0 0.00 0.00 0.00 31 1053.7
20230127213043 51 152 1.0 2.0 0.00 0.00 0.00 31 1053.3
20230127212543 52 168 4.0 5.0 0.00 0.00 0.00 29 1053.1
20230127212043 52 169 1.0 1.0 0.00 0.00 0.00 29 1053.2
20230127211542 51 239 1.0 2.0 0.00 0.00 0.00 30 1053.3
20230127211041 51 150 2.0 2.0 0.00 0.00 0.00 31 1053.2
20230127210541 51 241 6.0 7.0 0.00 0.00 0.00 29 1053.2
20230127210041 51 143 1.0 2.0 0.00 0.00 0.00 31 1053.1
20230127205540 51 215 3.0 5.0 0.00 0.00 0.00 30 1053.4
20230127205040 50 135 1.0 1.0 0.00 0.00 0.00 32 1053.2
20230127204540 51 228 5.0 7.0 0.00 0.00 0.00 31 1053.1
20230127204039 51 165 1.0 2.0 0.00 0.00 0.00 30 1053.1
20230127203538 50 58 2.0 2.0 0.00 0.00 0.00 31 1053.3
20230127203037 50 232 2.0 3.0 0.00 0.00 0.00 30 1053.0
20230127202537 50 220 3.0 3.0 0.00 0.00 0.00 32 1052.9
20230127202036 50 274 2.0 3.0 0.00 0.00 0.00 32 1052.9
20230127201535 50 313 3.0 6.0 0.00 0.00 0.00 31 1053.2
20230127201034 51 162 4.0 5.0 0.00 0.00 0.00 32 1053.0
20230127200533 50 145 2.0 2.0 0.00 0.00 0.00 31 1053.3
20230127200031 49 149 1.0 2.0 0.00 0.00 0.00 33 1053.2
20230127195530 50 292 1.0 3.0 0.00 0.00 0.00 32 1053.0
20230127195030 50 310 4.0 5.0 0.00 0.00 0.00 31 1053.1
20230127194529 50 129 2.0 2.0 0.00 0.00 0.00 32 1053.4
20230127194027 49 234 4.0 6.0 0.00 0.00 0.00 32 1053.3
20230127193527 50 237 5.0 6.0 0.00 0.00 0.00 32 1053.2
20230127193027 49 51 4.0 5.0 0.00 0.00 0.00 33 1053.5
20230127192526 49 262 3.0 3.0 0.00 0.00 0.00 34 1053.6
20230127192026 49 340 2.0 2.0 0.00 0.00 0.00 34 1053.5
20230127191524 50 159 1.0 2.0 0.00 0.00 0.00 33 1053.4
20230127191023 50 213 2.0 2.0 0.00 0.00 0.00 33 1053.4
20230127190523 49 99 1.0 2.0 0.00 0.00 0.00 35 1053.5
20230127190022 48 97 1.0 1.0 0.00 0.00 0.00 33 1053.8
20230127185521 49 335 3.0 3.0 0.00 0.00 0.00 34 1053.7
20230127185020 48 178 3.0 3.0 0.00 0.00 0.00 33 1053.9
20230127184519 48 168 3.0 5.0 0.00 0.00 0.00 33 1054.0
20230127184018 48 51 3.0 3.0 0.00 0.00 0.00 34 1053.8
20230127183517 48 162 1.0 1.0 0.00 0.00 0.00 33 1054.3
20230127183017 50 17 3.0 5.0 0.00 0.00 0.00 34 1054.1
20230127182514 49 184 1.0 1.0 0.00 0.00 0.00 34 1054.1
20230127182013 48 235 3.0 3.0 0.00 0.00 0.00 37 1054.2
20230127181513 48 258 2.0 2.0 0.00 0.00 0.00 34 1054.3
20230127181012 47 323 3.0 5.0 0.00 0.00 0.00 34 1054.2
20230127180510 47 328 5.0 6.0 0.00 0.00 0.00 35 1054.4
20230127180010 47 121 0.0 1.0 0.00 0.00 0.00 34 1054.4
20230127175509 46 188 2.0 2.0 0.00 0.00 0.00 36 1054.6
20230127175008 47 5 4.0 6.0 0.00 0.00 0.00 37 1054.6
20230127174507 46 191 1.0 1.0 0.00 0.00 0.00 37 1054.8
20230127174006 46 359 2.0 3.0 0.00 0.00 0.00 37 1054.9
20230127173506 45 260 3.0 3.0 0.00 0.00 0.00 38 1055.2
20230127173004 47 321 3.0 3.0 0.00 0.00 0.00 39 1055.4
20230127172505 45 100 2.0 2.0 0.00 0.00 0.00 40 1055.1
20230127172003 45 255 3.0 3.0 0.00 0.00 0.00 39 1055.7
20230127171503 45 282 2.0 2.0 0.00 0.00 0.00 39 1055.6
20230127171001 46 229 3.0 3.0 0.00 0.00 0.00 40 1055.6
20230127170459 44 172 1.0 2.0 0.00 0.00 0.00 42 1055.7
20230127170000 44 38 2.0 2.0 0.00 0.00 0.00 43 1055.8
20230127165459 44 241 3.0 3.0 0.00 0.00 0.00 42 1055.8
20230127164958 44 178 3.0 5.0 0.00 0.00 0.00 42 1056.0
20230127164457 44 205 3.0 3.0 0.00 0.00 0.00 42 1056.3
20230127163956 44 94 1.0 2.0 0.00 0.00 0.00 45 1056.2
20230127163456 43 16 3.0 3.0 0.00 0.00 0.00 45 1056.0
20230127162955 43 151 0.0 1.0 0.00 0.00 0.00 46 1056.2
20230127162453 43 207 2.0 2.0 0.00 0.00 0.00 46 1056.1